77P/Longmore (2023)

Japanese version
Home page
Updated on November 3, 2020

---------------------------------------------------------------------

* Profile

* Orbital Elements

Epoch 2023 Apr. 6.0 TT = JDT 2460040.5
T 2023 Apr. 3.11789 TT                                  MPCW
q   2.3487680            (2000.0)            P               Q
n   0.14286880     Peri.  196.73032     -0.85916569     +0.50081405
a   3.6239132      Node    14.76810     -0.40954486     -0.55003109
e   0.3518697      Incl.   24.31880     -0.30676916     -0.66831960
P   6.90
From 1538 observations 1981 Jan. 3-2016 May 18, mean residual 0".7.
     Nongravitational parameters A1 = +0.15, A2 = -0.0468.

* Finding Charts

* Magnitudes Graph

        H = 14.0  G = 0.15               [    ,-427]  (             - 2022 Jan. 31)
        m1 = 4.0 + 5 log d + 25.0 log r  [-427, 445]  (2022 Jan. 31 - 2024 June 21)
        H = 14.0  G = 0.15               [ 445,    ]  (2024 June 21 -             )

---------------------------------------------------------------------

The orbital elements are published on M.P.E.C. 2016-K18.
The charts are made with StellaNavigator Ver.10 (AstroArts).
The magnitudes graphs are made with Comet for Windows.

---------------------------------------------------------------------

Copyright(C) Seiichi Yoshida (comet@aerith.net). All rights reserved.